SCD 1 1 22490U 93009B 26104.39332159 .00000368 00000+0 49632-4 0 9990 2 22490 24.9690 241.4577 0041856 182.5624 211.1225 14.46091541751878 TECHSAT 1B (GO-32) 1 25397U 98043D 26104.70492750 .00000033 00000+0 34438-4 0 9998 2 25397 99.0057 95.8692 0002137 61.6834 298.4559 14.24415740442293 SCD 2 1 25504U 98060A 26104.73780433 .00000310 00000+0 35775-4 0 9991 2 25504 24.9945 103.4409 0016808 171.7182 350.3606 14.45501425451130 DLR-TUBSAT 1 25757U 99029B 26104.70727841 .00000039 00000+0 21435-4 0 9994 2 25757 98.6689 98.1282 0014201 178.4936 181.6304 14.52410467424030 TERRA 1 25994U 99068A 26104.89688527 .00000226 00000+0 55016-4 0 9997 2 25994 97.9520 156.9346 0003596 78.4236 94.4395 14.61052786400367 MAROC-TUBSAT 1 27004U 01056D 26104.76045574 -.00000022 00000+0 28342-4 0 9993 2 27004 99.8051 280.4292 0019184 306.7676 69.3718 13.70259787217500 AQUA 1 27424U 02022A 26104.88244485 .00000497 00000+0 10885-3 0 9995 2 27424 98.4231 72.9238 0001780 107.4840 280.3892 14.62058610274029 IRS-P6 (RESOURCESAT-1) 1 28051U 03046A 26104.84918186 -.00000185 00000+0 -48526-4 0 9991 2 28051 98.1982 144.4466 0064304 171.1665 2.0161 14.36136843171433 SHIYAN-1 (SY-1) 1 28220U 04012A 26104.47333452 .00006657 00000+0 21721-3 0 9994 2 28220 97.8719 178.4827 0004933 234.3487 125.7295 15.32147611201335 AURA 1 28376U 04026A 26104.85329808 .00000478 00000+0 10667-3 0 9995 2 28376 98.3366 60.8068 0001595 91.5258 268.6125 14.61230174156967 IRS-P5 (CARTOSAT-1) 1 28649U 05017A 26104.79133123 .00000653 00000+0 71503-4 0 9997 2 28649 97.5368 130.7230 0000604 93.3798 266.7490 14.90886859134374 SINAH 1 1 28893U 05043D 26104.83942704 .00000189 00000+0 45200-4 0 9994 2 28893 98.2755 238.8237 0015685 113.2877 246.9978 14.64113239 91251 RESURS-DK 1 1 29228U 06021A 26104.83477213 .00001058 00000+0 65996-4 0 9992 2 29228 69.9298 143.5136 0002452 6.7217 353.3982 15.12947475 92994 ARIRANG-2 (KOMPSAT-2) 1 29268U 06031A 26104.83806904 .00000217 00000+0 49350-4 0 9992 2 29268 97.8314 292.3482 0012988 275.8129 208.5019 14.64619893 52208 LAPAN-TUBSAT 1 29709U 07001A 26104.82057888 .00000763 00000+0 94075-4 0 9998 2 29709 98.1346 102.6213 0013136 37.4657 322.7470 14.85886091 41742 HAIYANG-1B 1 31113U 07010A 26104.86677573 .00000056 00000+0 37058-4 0 9996 2 31113 98.3469 89.1796 0014229 33.5526 326.6556 14.31011119991578 COSMO-SKYMED 1 1 31598U 07023A 26104.83366118 .00001218 00000+0 11166-3 0 9996 2 31598 97.8880 296.1632 0001425 86.2604 273.8780 14.96798405 20319 TERRASAR-X 1 31698U 07026A 26104.49709652 .00000081 00000+0 70279-5 0 9995 2 31698 97.4455 113.1113 0001826 81.8926 278.2516 15.19152984 43558 WORLDVIEW-1 (WV-1) 1 32060U 07041A 26104.81400434 .00003709 00000+0 15518-3 0 9991 2 32060 97.3862 225.4487 0001037 269.4132 90.6986 15.24194206 33220 YAOGAN-3 1 32289U 07055A 26104.82759493 .00001018 00000+0 10985-3 0 9996 2 32289 97.8222 135.3248 0001244 89.9910 270.1450 14.90540813996423 COSMO-SKYMED 2 1 32376U 07059A 26104.83617096 .00000254 00000+0 38448-4 0 9996 2 32376 97.8883 289.3513 0001378 91.1731 268.9640 14.82150907992617 RADARSAT-2 1 32382U 07061A 26104.85411132 -.00000003 00000+0 15623-4 0 9994 2 32382 98.5807 112.6864 0001272 85.7839 274.3489 14.29980133956903 CARTOSAT-2A 1 32783U 08021A 26104.86543812 -.00000083 00000+0 -44074-5 0 9990 2 32783 97.7708 155.7184 0010932 324.0927 35.9549 14.79160069969446 HUANJING 1A (HJ-1A) 1 33320U 08041A 26104.91615024 .00000772 00000+0 99076-4 0 9995 2 33320 97.6661 93.2179 0018873 351.3890 8.6998 14.83842392949023 HUANJING 1B (HJ-1B) 1 33321U 08041B 26104.85743370 .00000562 00000+0 74314-4 0 9990 2 33321 97.6505 96.5210 0037410 33.3312 327.0247 14.83200285949021 GEOEYE 1 1 33331U 08042A 26104.82443816 .00000229 00000+0 51970-4 0 9994 2 33331 98.1257 179.5537 0002902 254.8490 105.2392 14.64666451940872 THEOS 1 33396U 08049A 26104.84024742 -.00000076 00000+0 -15951-4 0 9998 2 33396 98.5635 164.1642 0001237 94.5578 265.5740 14.20123746908979 COSMO-SKYMED 3 1 33412U 08054A 26104.85468595 .00002032 00000+0 14141-3 0 9993 2 33412 97.8380 322.3661 0017274 118.0380 242.2597 15.06556705947400 YAOGAN-4 1 33446U 08061A 26104.81668219 .00000567 00000+0 76250-4 0 9990 2 33446 97.9280 38.8120 0012825 278.4834 81.4926 14.83081726936270 GOSAT (IBUKI) 1 33492U 09002A 26104.86538648 .00000383 00000+0 75995-4 0 9995 2 33492 98.0807 216.7653 0001135 104.9906 255.1424 14.67540167922179 DEIMOS-1 1 35681U 09041A 26104.83448110 .00000593 00000+0 94877-4 0 9994 2 35681 97.7321 264.8354 0002519 63.4696 296.6772 14.75172055897546 DUBAISAT-1 1 35682U 09041B 26104.86716983 .00000633 00000+0 10158-3 0 9998 2 35682 97.9946 238.8576 0009087 274.4198 85.5973 14.75005395895769 OCEANSAT-2 1 35931U 09051A 26104.86278110 -.00000194 00000+0 -10667-3 0 9990 2 35931 98.2312 98.0479 0016833 55.3844 304.8908 13.99653758870479 WORLDVIEW-2 (WV-2) 1 35946U 09055A 26104.84152853 .00000063 00000+0 35208-4 0 9995 2 35946 98.4700 179.1846 0005284 59.1474 301.0233 14.37925219866546 SMOS 1 36036U 09059A 26104.80881264 .00000139 00000+0 58239-4 0 9994 2 36036 98.4436 293.0680 0001104 101.9517 258.1795 14.39785335864331 YAOGAN-7 1 36110U 09069A 26104.65278022 .00000269 00000+0 44579-4 0 9999 2 36110 98.0152 350.8872 0023333 242.8933 116.9897 14.77947106880245 TANDEM-X 1 36605U 10030A 26104.49709548 .00000064 00000+0 62437-5 0 9999 2 36605 97.4461 113.1111 0001822 96.3159 263.8283 15.19152890876978 CARTOSAT-2B 1 36795U 10035A 26104.86464255 -.00000029 00000+0 32255-5 0 9995 2 36795 98.0027 155.7982 0012180 41.1828 319.0299 14.78651082850492 YAOGAN-10 1 36834U 10038A 26104.89785137 .00000765 00000+0 95642-4 0 9994 2 36834 97.9040 128.7999 0001414 84.6908 25.7806 14.85154711847818 COSMO-SKYMED 4 1 37216U 10060A 26104.84883396 .00000076 00000+0 16145-4 0 9991 2 37216 97.8884 289.3648 0001488 76.5163 283.6216 14.82146448835189 RESOURCESAT-2 1 37387U 11015A 26104.81496764 -.00000238 00000+0 -88378-4 0 9996 2 37387 98.7688 172.6830 0012386 82.6272 277.6312 14.21615372777179 HAIYANG-2A 1 37781U 11043A 26104.38147860 .00000298 00000+0 34882-3 0 9991 2 37781 99.3418 108.3728 0004297 212.0932 147.9958 13.76557871737888 RASAT 1 37791U 11044D 26104.87640728 .00000273 00000+0 55945-4 0 9995 2 37791 98.0546 197.2505 0021436 36.2959 101.7494 14.68107319783891 SRMSAT 1 37841U 11058D 26104.61807969 .00000358 00000+0 50572-4 0 9995 2 37841 19.9717 84.2347 0011634 223.7287 292.4418 14.11560239748824 PLEIADES 1A 1 38012U 11076F 26104.88015113 .00000042 00000+0 18766-4 0 9996 2 38012 98.1997 180.8267 0001235 73.3413 16.9464 14.58569844762765 ZIYUAN 1-02C (ZY 1-02C) 1 38038U 11079A 26104.84679615 .00000030 00000+0 24096-4 0 9996 2 38038 98.4115 173.4695 0007368 130.3637 355.3023 14.38160842750105 ARIRANG-3 (KOMPSAT-3) 1 38338U 12025B 26104.87000713 .00000250 00000+0 58858-4 0 9998 2 38338 98.1120 63.4455 0004551 326.6333 33.4581 14.62149689742092 EXACTVIEW-1 (ADS-1B) 1 38709U 12039C 26104.83564664 .00000055 00000+0 43475-4 0 9993 2 38709 98.9683 220.8227 0010720 359.9214 0.1961 14.24965413713689 SPOT 6 1 38755U 12047A 26104.80929201 .00000063 00000+0 23375-4 0 9998 2 38755 98.2161 172.8481 0001301 82.9852 277.1495 14.58588198723810 PLEIADES 1B 1 39019U 12068A 26104.89751725 -.00000016 00000+0 62809-5 0 9993 2 39019 98.1967 180.8139 0001135 78.1682 281.9644 14.58556728711628 GOKTURK 2 1 39030U 12073A 26104.80986257 .00000502 00000+0 80742-4 0 9997 2 39030 97.6870 305.4053 0001537 109.7857 250.3519 14.75482544715166 LANDSAT 8 1 39084U 13008A 26104.84902611 .00000190 00000+0 52156-4 0 9992 2 39084 98.1862 175.9694 0001173 94.1610 265.9722 14.57117690688673 SARAL 1 39086U 13009A 26104.84379363 .00000051 00000+0 34601-4 0 9998 2 39086 98.5566 292.2096 0002963 103.8353 256.3161 14.32840361686534 GAOFEN-1 1 39150U 13018A 26104.83607094 .00000523 00000+0 82149-4 0 9998 2 39150 97.9125 178.1819 0018562 108.5966 251.7261 14.76542682698894 VNREDSAT 1 1 39160U 13021B 26104.83727954 .00000084 00000+0 24254-4 0 9996 2 39160 97.9147 160.6652 0001294 83.6363 276.4988 14.64940596691018 ARIRANG-5 (KOMPSAT-5) 1 39227U 13042A 26104.85002353 .00001324 00000+0 98964-4 0 9991 2 39227 97.6224 292.4356 0003676 20.3196 339.8176 15.04479107694339 SKYSAT-A 1 39418U 13066C 26104.62569080 .00001963 00000+0 11544-3 0 9996 2 39418 97.3882 156.0441 0021984 170.1257 190.0411 15.12609587678878 DUBAISAT-2 1 39419U 13066D 26104.91577887 .00002303 00000+0 14655-3 0 9998 2 39419 97.4552 96.7475 0009600 248.1978 111.8230 15.09724727676843 GPM-CORE 1 39574U 14009C 26104.70539323 .00005734 00000+0 12800-3 0 9999 2 39574 64.9723 160.8372 0012541 257.9353 102.0382 15.44535260688008 SENTINEL-1A 1 39634U 14016A 26104.87037863 -.00000044 00000+0 37069-6 0 9991 2 39634 98.1808 113.3219 0001411 85.2261 274.9100 14.59198449640784 KAZEOSAT 1 1 39731U 14024A 26104.81171969 -.00000033 00000+0 30651-5 0 9995 2 39731 98.3233 178.8273 0001284 101.4386 258.6948 14.42054118629422 ALOS-2 1 39766U 14029A 26104.83477626 .00000362 00000+0 55339-4 0 9992 2 39766 97.9193 202.9065 0001814 89.1435 270.9984 14.79477568642211 KAZEOSAT 2 1 40010U 14033A 26104.84231597 .00000300 00000+0 40672-4 0 9993 2 40010 97.5464 307.7858 0008921 158.9031 201.2555 14.85394249639554 HODOYOSHI-4 1 40011U 14033B 26104.82508417 .00001237 00000+0 13988-3 0 9999 2 40011 97.5464 292.7108 0024315 152.2217 208.0305 14.87976182639387 DEIMOS-2 1 40013U 14033D 26104.80831848 .00001319 00000+0 13035-3 0 9990 2 40013 97.5923 341.5008 0001843 108.9926 251.1494 14.93550275628268 HODOYOSHI-3 1 40015U 14033F 26104.72512366 .00000767 00000+0 94737-4 0 9999 2 40015 97.6356 270.3471 0032439 201.2496 158.7374 14.85246435638203 SPOT 7 1 40053U 14034A 26104.82797546 .00000166 00000+0 43292-4 0 9991 2 40053 98.0682 168.9397 0001632 84.7487 275.3900 14.60902570627881 SKYSAT-B 1 40072U 14037D 26104.30706775 .00000879 00000+0 10285-3 0 9998 2 40072 98.3784 59.6615 0006769 118.6284 241.5612 14.87858646636467 WORLDVIEW-3 (WV-3) 1 40115U 14048A 26104.82751101 .00000464 00000+0 60731-4 0 9990 2 40115 97.8586 180.5336 0002434 127.3356 232.8081 14.84916627632500 GAOFEN-2 1 40118U 14049A 26104.86399373 .00000182 00000+0 30469-4 0 9999 2 40118 98.0161 169.1198 0008784 80.0756 280.1447 14.80824319629866 YAOGAN-21 1 40143U 14053A 26104.88040865 .00001831 00000+0 74966-4 0 9995 2 40143 97.1551 147.8548 0006996 327.8815 32.1996 15.25490738645305 YAOGAN-22 1 40275U 14063A 26104.83514466 -.00000006 00000+0 10884-3 0 9992 2 40275 100.7620 255.0785 0005967 337.5165 22.5684 13.15529002551483 ASNARO 1 40298U 14070A 26104.81091061 .00004342 00000+0 20776-3 0 9991 2 40298 97.3474 182.6233 0003911 50.9252 309.2330 15.19482748634384 YAOGAN-24 1 40310U 14072A 26104.84035876 .00000483 00000+0 77511-4 0 9995 2 40310 98.1374 241.6792 0015254 105.2190 255.0707 14.76140062614376 CBERS 4 1 40336U 14079A 26104.88755432 -.00000087 00000+0 -15620-4 0 9996 2 40336 98.3416 163.7288 0000772 135.9734 224.1514 14.35541820594877 YAOGAN-26 1 40362U 14088A 26104.83460196 .00009590 00000+0 20588-3 0 9994 2 40362 97.0662 106.6433 0001828 285.4945 74.6103 15.44901151627913 SMAP 1 40376U 15003A 26104.83234583 .00000262 00000+0 59737-4 0 9992 2 40376 98.1302 112.8178 0001919 86.1628 273.9793 14.63383194598356 KOMPSAT-3A 1 40536U 15014A 26104.88212066 .00020284 00000+0 32585-3 0 9996 2 40536 97.6891 91.7694 0061985 49.7062 310.9584 15.50827658611996 SENTINEL-2A 1 40697U 15028A 26104.85808708 -.00000186 00000+0 -54347-4 0 9992 2 40697 98.5635 180.6194 0001333 88.3923 271.7413 14.30819500564670 GAOFEN-8 1 40701U 15030A 26104.86701692 .00013639 00000+0 30316-3 0 9990 2 40701 97.6934 294.5405 0010188 66.8924 293.3396 15.43751398601675 CARBONITE 1 (CBNT-1) 1 40718U 15032D 26104.84673846 .00001096 00000+0 13960-3 0 9997 2 40718 97.6490 285.5806 0015436 138.3697 221.8696 14.83386960579954 YAOGAN-27 1 40878U 15040A 26104.85523603 .00000309 00000+0 92604-3 0 9997 2 40878 100.1134 93.9943 0008343 6.0003 354.1209 13.16068861509337 GAOFEN-9 01 1 40894U 15047A 26104.83340215 .00000534 00000+0 71968-4 0 9997 2 40894 97.6344 143.3897 0027040 351.2474 8.8265 14.82770214570809 YAOGAN-28 1 41026U 15064A 26104.82421054 .00004283 00000+0 16596-3 0 9994 2 41026 97.2969 244.4516 0011968 60.2159 300.0268 15.26618324581013 YAOGAN-29 1 41038U 15069A 26104.82412072 -.00000031 00000+0 28479-5 0 9995 2 41038 98.0095 133.3422 0000921 159.1681 200.9570 14.83032156561233 KENT RIDGE 1 1 41167U 15077B 26104.10990147 .00003046 00000+0 95137-4 0 9994 2 41167 14.9807 22.3752 0008341 54.3698 305.7400 15.22743608571316 GAOFEN-4 1 41194U 15083A 26104.75021034 -.00000330 00000+0 00000+0 0 9996 2 41194 0.3426 82.5075 0002966 127.9846 8.2185 1.00273943 37893 JASON-3 1 41240U 16002A 26104.85700023 -.00000056 00000+0 25828-4 0 9998 2 41240 66.0405 258.9793 0007784 275.4342 84.5788 12.87628299479093 SENTINEL-3A 1 41335U 16011A 26104.81914572 .00000057 00000+0 41456-4 0 9990 2 41335 98.6284 173.1012 0001017 92.1412 267.9885 14.26736096529025 ZIYUAN 3-02 (ZY 3-02) 1 41556U 16033A 26104.84992258 .00003192 00000+0 14474-3 0 9991 2 41556 97.3857 181.8321 0014516 153.8156 206.3816 15.21460426548354 CARTOSAT-2C 1 41599U 16040A 26104.89685874 .00001999 00000+0 97938-4 0 9994 2 41599 97.4545 165.7246 0009066 2.6146 357.5134 15.19287455544104 SKYSAT-C1 1 41601U 16040C 26104.81818095 .00004982 00000+0 14775-3 0 9995 2 41601 96.9634 140.0008 0001059 201.9161 158.2038 15.35250494548146 LAPAN-A3 1 41603U 16040E 26104.87101583 .00002132 00000+0 69842-4 0 9991 2 41603 97.1489 103.1201 0008677 236.7198 123.3214 15.32693274545110 GAOFEN-3 1 41727U 16049A 26104.88068322 -.00000174 00000+0 -39752-4 0 9994 2 41727 98.4040 113.6169 0001409 66.9916 293.1422 14.42224152509527 SKYSAT-C4 1 41771U 16058B 26104.83633921 .00009698 00000+0 19596-3 0 9992 2 41771 96.9238 129.3334 0003424 111.6105 248.5511 15.46665536535671 SKYSAT-C5 1 41772U 16058C 26104.63381622 .00004272 00000+0 13292-3 0 9999 2 41772 97.0586 148.1232 0003123 141.0686 219.0783 15.33807727534009 SKYSAT-C2 1 41773U 16058D 26104.63631839 .00006523 00000+0 16189-3 0 9997 2 41773 97.0231 129.1730 0001107 285.4887 74.6238 15.40667949535262 SKYSAT-C3 1 41774U 16058E 26104.66606161 .00011487 00000+0 20663-3 0 9998 2 41774 96.9119 138.0405 0002438 108.5518 251.6000 15.49977775536263 ALSAT-1B 1 41785U 16059C 26104.82934506 .00000173 00000+0 34881-4 0 9994 2 41785 97.7785 116.3239 0010771 72.4797 287.7588 14.72225691511255 PATHFINDER 1 1 41787U 16059E 26104.73058281 .00000409 00000+0 79786-4 0 9998 2 41787 97.8181 106.8724 0029642 50.6273 309.7551 14.67583393510406 SCATSAT 1 1 41790U 16059H 26104.63812486 .00000773 00000+0 10836-3 0 9990 2 41790 98.1239 167.7418 0056133 93.0491 267.7145 14.79384880 92198 GOKTURK 1A 1 41875U 16073A 26104.83553251 .00000214 00000+0 51086-4 0 9997 2 41875 98.1319 0.4799 0001347 82.4129 277.7226 14.62786250499565 RESOURCESAT-2A 1 41877U 16074A 26104.86735885 -.00000192 00000+0 -67461-4 0 9999 2 41877 98.7551 178.8819 0001024 254.1552 105.9513 14.21613967485301 CARTOSAT-2D 1 41948U 17008A 26104.46887524 -.00000239 00000+0 -81273-5 0 9990 2 41948 97.4170 164.9435 0005922 104.4673 255.7219 15.19300622507902 SENTINEL-2B 1 42063U 17013A 26104.85084080 -.00000196 00000+0 -58206-4 0 9995 2 42063 98.5661 180.5257 0001237 92.4990 267.6335 14.30819846475581 CARTOSAT-2E 1 42767U 17036C 26104.88130032 .00000230 00000+0 14134-4 0 9992 2 42767 97.4337 165.7064 0003571 149.2803 210.8641 15.19229791488539 FORMOSAT-5 1 42920U 17049A 26104.81290689 .00000078 00000+0 30827-4 0 9992 2 42920 98.2267 181.5264 0010118 278.2522 81.7526 14.50873599457487 SENTINEL-5P 1 42969U 17064A 26104.55276986 .00000011 00000+0 26408-4 0 9994 2 42969 98.7927 47.1413 0001261 85.3728 274.7591 14.19507933440530 SKYSAT-C11 1 42987U 17068A 26104.85024050 .00016777 00000+0 25449-3 0 9993 2 42987 97.4263 251.1164 0001044 155.6170 204.5134 15.54686707473391 SKYSAT-C10 1 42988U 17068B 26104.62958532 .00005363 00000+0 16797-3 0 9995 2 42988 97.4399 240.9487 0001268 115.4234 244.7140 15.33528165472616 SKYSAT-C9 1 42989U 17068C 26104.85258126 .00007958 00000+0 20120-3 0 9990 2 42989 97.4323 241.5247 0008540 13.7779 346.3698 15.40030196473000 SKYSAT-C8 1 42990U 17068D 26104.10788004 .00006754 00000+0 19685-3 0 9990 2 42990 97.4416 239.9866 0001050 103.0327 257.1034 15.35708878472470 SKYSAT-C7 1 42991U 17068E 26104.81586178 .00006091 00000+0 17799-3 0 9995 2 42991 97.4430 241.6874 0005366 345.2056 14.9029 15.35662974472647 SKYSAT-C6 1 42992U 17068F 26104.86568544 .00005800 00000+0 18248-3 0 9995 2 42992 97.4463 241.9139 0002787 37.3372 322.8063 15.33348230472615 CARTOSAT-2F 1 43111U 18004A 26104.84707672 .00001447 00000+0 71729-4 0 9992 2 43111 97.4096 165.3399 0002500 117.2438 242.9051 15.19306785457718 GAOFEN-1 02 1 43259U 18031A 26104.86499730 -.00000157 00000+0 -15088-4 0 9995 2 43259 98.0581 167.5527 0002553 184.1497 175.9692 14.76429000433358 GAOFEN-1 03 1 43260U 18031B 26104.84303337 .00000405 00000+0 65673-4 0 9991 2 43260 98.0566 167.3958 0001045 281.7661 78.3431 14.76417094433347 GAOFEN-1 04 1 43262U 18031D 26104.88672330 .00000534 00000+0 84221-4 0 9992 2 43262 98.0582 167.6222 0000859 61.6828 298.4469 14.76452681433343 SENTINEL-3B 1 43437U 18039A 26104.79225791 .00000052 00000+0 39492-4 0 9994 2 43437 98.6284 173.2227 0001658 103.4081 256.7284 14.26739092415086 GAOFEN-5 01 1 43461U 18043A 26104.89898537 .00000199 00000+0 50992-4 0 9991 2 43461 98.4524 75.1768 0000538 295.6004 64.5140 14.60560645422452 GAOFEN-6 1 43484U 18048A 26104.84651002 -.00000036 00000+0 19148-5 0 9990 2 43484 97.7810 169.8373 0012754 26.6380 333.5483 14.76555482424048 GAOFEN-11 01 1 43585U 18063A 26104.88955823 .00006677 00000+0 10678-3 0 9994 2 43585 97.1349 172.0182 0003811 180.8111 179.3137 15.53476249430514 ICESAT-2 1 43613U 18070A 26104.83682816 .00001970 00000+0 71436-4 0 9999 2 43613 92.0007 273.8957 0003352 62.4754 297.6836 15.28257456422788 HYSIS 1 43719U 18096A 26104.80448032 .00000436 00000+0 66575-4 0 9995 2 43719 97.9883 172.0361 0001154 62.7017 297.4311 14.78647553398056 KAZSTSAT 1 43783U 18099AB 26104.31565513 .00001434 00000+0 12058-3 0 9994 2 43783 97.4378 139.1210 0002999 238.0980 121.9952 14.99746344401736 SAUDISAT 5A 1 43831U 18102A 26104.89225185 .00003210 00000+0 12223-3 0 9992 2 43831 97.3124 167.7059 0009690 8.6972 351.4433 15.27411420406019 SAUDISAT 5B 1 43833U 18102C 26104.85695666 .00002907 00000+0 10999-3 0 9995 2 43833 97.3225 170.6270 0010467 10.4866 349.6590 15.27700521406126 GAOFEN-10R 1 44622U 19066A 26104.86458031 .00000707 00000+0 93885-4 0 9998 2 44622 98.0449 58.0082 0005498 358.7390 1.3808 14.82917531352997 CARTOSAT-3 1 44804U 19081A 26104.86230047 .00001198 00000+0 60036-4 0 9999 2 44804 97.4362 167.7282 0012468 19.0145 341.1552 15.19218489353850 GAOFEN-12 01 1 44819U 19082A 26104.88386538 .00000220 00000+0 35434-4 0 9994 2 44819 97.8127 112.9317 0000818 124.2630 235.8660 14.80406633344726 CSG-1 1 44873U 19092A 26104.79397156 .00000222 00000+0 34382-4 0 9996 2 44873 97.8885 289.3124 0001235 88.2257 271.9097 14.82160820342089 NEMO-HD 1 46277U 20061F 26104.80848809 .00006059 00000+0 13786-3 0 9990 2 46277 97.1979 167.4442 0000810 112.8976 247.2357 15.43343126312201 SENTINEL-6A 1 46984U 20086A 26104.84399953 -.00000057 00000+0 19367-4 0 9992 2 46984 66.0403 266.6164 0007737 270.5138 89.4991 12.80930917252215 GAOFEN-12 02 1 48079U 21026A 26104.88821813 .00000228 00000+0 36890-4 0 9992 2 48079 97.9928 103.3320 0006301 82.3438 277.8489 14.80244933272390 PLEIADES NEO 3 1 48268U 21034A 26104.84016216 .00000667 00000+0 91378-4 0 9999 2 48268 97.8933 180.5163 0001273 94.3145 265.8213 14.81675075268278 PLEIADES NEO 4 1 49070U 21073E 26104.80640159 -.00000574 00000+0 -66362-4 0 9993 2 49070 97.8933 180.4790 0001253 93.7402 266.3954 14.81672999251982 LANDSAT 9 1 49260U 21088A 26104.81483963 .00000187 00000+0 51491-4 0 9994 2 49260 98.1884 176.0062 0001149 100.6600 259.4727 14.57113376241776 CSG-2 1 51444U 22008A 26104.82772634 .00000389 00000+0 55432-4 0 9994 2 51444 97.8886 289.3426 0001424 83.9338 276.2037 14.82158677227204 GAOFEN-12 03 1 52912U 22069A 26104.83802744 .00000145 00000+0 25866-4 0 9997 2 52912 97.8359 354.2839 0001778 51.0888 309.0483 14.79930925205248 SWOT 1 54754U 22173A 26104.82271377 .00000008 00000+0 73268-5 0 9998 2 54754 77.6076 120.8487 0000721 181.2228 178.8922 14.00169332170288 GAOFEN-12 04 1 57654U 23123A 26104.86261049 .00000606 00000+0 86673-4 0 9992 2 57654 97.9130 23.7940 0001247 82.7201 277.4152 14.80105005143265 PARS 1 1 59065U 24039Q 26104.90990723 .00007321 00000+0 16015-3 0 9993 2 59065 97.4789 83.9164 0009158 357.5659 2.5543 15.44421163118870 RESURS-P 4 1 59371U 24061A 26104.84014539 .00002297 00000+0 73916-4 0 9994 2 59371 97.2705 53.8773 0001129 121.2092 238.9262 15.33234084114067 LEGION 1 1 59625U 24081A 26104.82583206 .00002388 00000+0 12530-3 0 9993 2 59625 97.5033 183.3505 0008812 233.9789 126.0628 15.16685771107933 LEGION 2 1 59626U 24081B 26104.79516106 .00002052 00000+0 10742-3 0 9996 2 59626 97.5033 183.4054 0010252 204.6505 155.4240 15.16913551107932 ALOS-4 (DAICHI-4) 1 60182U 24123A 26104.85415108 .00000890 00000+0 12604-3 0 9996 2 60182 97.9198 202.9286 0001594 99.0277 261.1115 14.79477309 96513 LEGION 3 1 60452U 24146A 26104.79739579 .00002311 00000+0 13456-3 0 9991 2 60452 45.0030 10.3938 0008948 166.5541 193.5577 15.15235753 92401 LEGION 4 1 60453U 24146B 26104.46627680 .00002595 00000+0 14814-3 0 9998 2 60453 45.0006 104.0202 0015204 313.5004 46.4610 15.15511308 91205 SENTINEL-2C 1 60989U 24157A 26104.81588929 .00000062 00000+0 40277-4 0 9995 2 60989 98.5641 180.5061 0001365 108.2569 251.8762 14.30813476 83924 IONOSFERA-M 1 1 61735U 24199A 26104.90019047 .00000017 00000+0 27041-4 0 9995 2 61735 98.7263 338.7124 0001056 28.6736 331.4500 14.22742375118701 IONOSFERA-M 2 1 61736U 24199B 26104.86429870 .00000013 00000+0 25471-4 0 9991 2 61736 98.7262 338.5881 0001708 111.5881 248.5479 14.22745144121823 BIOMASS 1 63772U 25090A 26104.41670055 .00000771 00000+0 14446-3 0 9998 2 63772 98.0751 292.6583 0001354 97.8897 262.2461 14.67536647 51337 GOSAT-GW (IBUKI GW) 1 64694U 25141A 26104.84960542 -.00000052 00000+0 -72621-6 0 9995 2 64694 98.0539 43.2078 0001405 84.1651 275.9713 14.67557277 42555 IONOSFERA-M 3 1 64876U 25155A 26104.89570637 .00000016 00000+0 26741-4 0 9997 2 64876 98.5977 68.4129 0002325 62.7447 297.3967 14.21475209 37413 IONOSFERA-M 4 1 64877U 25155B 26104.86024867 .00000020 00000+0 28919-4 0 9998 2 64877 98.5976 68.2963 0001685 65.4449 294.6904 14.21477156 37400 MICROCARB 1 64899U 25156A 26104.80888944 .00000314 00000+0 57440-4 0 9998 2 64899 97.9844 183.0764 0017717 113.4736 246.8336 14.72257776 38647 CO3D 3 1 64900U 25156B 26104.80029037 -.00005574 00000+0 -25463-3 0 9995 2 64900 97.4328 184.4035 0001759 59.1814 300.9594 15.20191058 39902 CO3D 4 1 64901U 25156C 26104.86626265 .00002483 00000+0 11775-3 0 9993 2 64901 97.4328 184.4687 0001675 120.7108 239.4292 15.20213838 39917 CO3D 2 1 64902U 25156D 26104.89875590 .00002609 00000+0 12363-3 0 9998 2 64902 97.4330 184.3995 0001145 53.9234 306.2107 15.20198622 39912 CO3D 1 1 64903U 25156E 26103.64843334 .00003151 00000+0 12932-3 0 9997 2 64903 98.0928 182.3847 0110033 5.8142 354.4339 15.19681462 39726 SENTINEL-6B 1 66514U 25264A 26104.84434243 -.00000057 00000+0 16450-4 0 9998 2 66514 66.0402 266.7418 0007902 269.9785 90.0325 12.80930767 19057 CSG-3 1 67304U 26001A 26104.46908424 .00000217 00000+0 33819-4 0 9996 2 67304 97.8885 288.9918 0001413 86.0153 274.1222 14.82147850 15022